Weather History for Appleton, MN

Change the Weather History Date:

Saturday, February 18, 2012

  Actual Average Record
Temperature  
Mean Temperature 24 °F -  
Max Temperature 41 °F 26 °F 42 °F (2002)
Min Temperature 6 °F 10 °F -14 °F (2001)
Degree Days  
Heating Degree Days 42    
Moisture  
Dew Point 13 °F    
Average Humidity 73    
Maximum Humidity 100    
Minimum Humidity 39    
Precipitation  
Precipitation 0.00 in - - ()
Sea Level Pressure  
Sea Level Pressure 30.18 in    
Wind  
Wind Speed 4 mph (South)    
Max Wind Speed 10 mph    
Max Gust Speed -    
Visibility 9 miles    
Events      
Averages and records for this station are not official NWS values.
T = Trace of Precipitation, MM = Missing Value Source: NWS Daily Summary

Daily Weather History Graph

Daily Weather History Graph

Search for Another Location

Airport:

Trip Planner

Search our weather history database for the weather conditions in past years. The results will help you decide how hot, cold, wet, or windy it might be!

Date:

Astronomy

Feb. 18, 2012 Rise Set
Actual Time 7:21 AM CST 5:55 PM CST
Civil Twilight 6:51 AM CST 6:25 PM CST
Nautical Twilight 6:16 AM CST 6:59 PM CST
Astronomical Twilight 5:42 AM CST 7:33 PM CST
Moon 5:08 AM CST (2/18) 2:46 PM CST (2/18)
Length of Visible Light 11h 34m
Length of Day
10h 33m
Waning Crescent, 11% of the Moon is Illuminated
Feb 18
Waning Crescent
Feb 21
New
Feb 29
First Quarter
Mar 8
Full
Mar 14
Last Quarter

Hourly Weather History & Observations

Time (CST) Temp. Windchill Dew Point Humidity Pressure Visibility Wind Dir Wind Speed Gust Speed Precip Events Conditions
12:14 AM 12.2 °F 4.3 °F 10.4 °F 92% 30.21 in 10.0 mi NW 4.6 mph - N/A   Clear
12:35 AM 10.4 °F 4.0 °F 10.4 °F 100% 30.21 in 10.0 mi NW 3.5 mph - N/A   Clear
12:54 AM 10.4 °F 4.0 °F 8.6 °F 92% 30.22 in 10.0 mi West 3.5 mph - N/A   Clear
1:15 AM 12.2 °F 4.3 °F 10.4 °F 92% 30.22 in 10.0 mi NW 4.6 mph - N/A   Clear
1:34 AM 12.2 °F 1.7 °F 12.2 °F 100% 30.22 in 10.0 mi NNW 6.9 mph - N/A   Clear
1:54 AM 12.2 °F 2.9 °F 10.4 °F 92% 30.22 in 10.0 mi NW 5.8 mph - N/A   Clear
2:14 AM 8.6 °F 2.0 °F 6.8 °F 92% 30.23 in 10.0 mi NW 3.5 mph - N/A   Clear
2:34 AM 10.4 °F - 10.4 °F 100% 30.23 in 10.0 mi Calm Calm - N/A   Clear
2:55 AM 10.4 °F - 8.6 °F 92% 30.23 in 10.0 mi Calm Calm - N/A   Clear
3:15 AM 10.4 °F - 8.6 °F 92% 30.22 in 10.0 mi Calm Calm - N/A   Clear
3:34 AM 10.4 °F 4.0 °F 8.6 °F 92% 30.23 in 10.0 mi WSW 3.5 mph - N/A   Clear
3:54 AM 8.6 °F - 6.8 °F 92% 30.23 in 10.0 mi Calm Calm - N/A   Clear
4:35 AM 8.6 °F - 8.6 °F 100% 30.22 in 10.0 mi Calm Calm - N/A   Clear
4:54 AM 8.6 °F - 8.6 °F 100% 30.21 in 5.0 mi Calm Calm - N/A   Clear
5:15 AM 8.6 °F - 6.8 °F 92% 30.22 in 7.0 mi Calm Calm - N/A   Clear
5:35 AM 8.6 °F - 8.6 °F 100% 30.21 in 3.0 mi Calm Calm - N/A   Clear
5:54 AM 8.6 °F - 6.8 °F 92% 30.21 in 5.0 mi Calm Calm - N/A   Clear
6:14 AM 6.8 °F - 3.2 °F 85% 30.21 in 7.0 mi Calm Calm - N/A   Clear
6:34 AM 6.8 °F - 3.2 °F 85% 30.21 in 1.2 mi Calm Calm - N/A   Clear
7:34 AM 6.8 °F - 5.0 °F 92% 30.22 in 10.0 mi Calm Calm - N/A   Clear
7:54 AM 6.8 °F - 5.0 °F 92% 30.22 in 10.0 mi Calm Calm - N/A   Clear
8:15 AM 10.4 °F - 8.6 °F 92% 30.23 in 10.0 mi Calm Calm - N/A   Clear
8:34 AM 14.0 °F - 12.2 °F 93% 30.22 in 10.0 mi Calm Calm - N/A   Clear
8:55 AM 15.8 °F - 15.8 °F 100% 30.22 in 10.0 mi Calm Calm - N/A   Clear
9:14 AM 17.6 °F - 17.6 °F 100% 30.22 in 10.0 mi Calm Calm - N/A   Clear
9:34 AM 21.2 °F - 19.4 °F 93% 30.23 in 10.0 mi Calm Calm - N/A   Clear
9:54 AM 23.0 °F 15.8 °F 21.2 °F 93% 30.23 in 10.0 mi South 5.8 mph - N/A   Clear
10:14 AM 24.8 °F 16.9 °F 17.6 °F 74% 30.23 in 10.0 mi South 6.9 mph - N/A   Clear
10:34 AM 26.6 °F 18.2 °F 17.6 °F 69% 30.23 in 10.0 mi South 8.1 mph - N/A   Clear
10:54 AM 28.4 °F 22.2 °F 17.6 °F 64% 30.23 in 10.0 mi South 5.8 mph - N/A   Clear
11:14 AM 30.2 °F 21.9 °F 17.6 °F 60% 30.22 in 10.0 mi South 9.2 mph - N/A   Clear
11:35 AM 32.0 °F 25.6 °F 17.6 °F 55% 30.22 in 10.0 mi South 6.9 mph - N/A   Clear
11:54 AM 33.8 °F 27.0 °F 17.6 °F 52% 30.21 in 10.0 mi SSE 8.1 mph - N/A   Clear
12:14 PM 33.8 °F 27.7 °F 17.6 °F 52% 30.20 in 10.0 mi SSW 6.9 mph - N/A   Clear
12:35 PM 35.6 °F 30.7 °F 17.6 °F 48% 30.18 in 10.0 mi South 5.8 mph - N/A   Clear
12:55 PM 35.6 °F 29.9 °F 17.6 °F 48% 30.17 in 10.0 mi SSE 6.9 mph - N/A   Clear
1:15 PM 37.4 °F 32.1 °F 17.6 °F 45% 30.16 in 10.0 mi SSE 6.9 mph - N/A   Clear
1:34 PM 37.4 °F 33.8 °F 17.6 °F 45% 30.15 in 10.0 mi SSE 4.6 mph - N/A   Clear
2:14 PM 39.2 °F 35.9 °F 17.6 °F 42% 30.13 in 10.0 mi SSE 4.6 mph - N/A   Clear
2:35 PM 39.2 °F 35.9 °F 17.6 °F 42% 30.12 in 10.0 mi South 4.6 mph - N/A   Clear
2:55 PM 39.2 °F 33.6 °F 17.6 °F 42% 30.11 in 10.0 mi South 8.1 mph - N/A   Clear
3:15 PM 39.2 °F - 17.6 °F 42% 30.10 in 10.0 mi Calm Calm - N/A   Clear
3:35 PM 41.0 °F 37.1 °F 17.6 °F 39% 30.10 in 10.0 mi SSE 5.8 mph - N/A   Clear
3:55 PM 41.0 °F 34.7 °F 17.6 °F 39% 30.09 in 10.0 mi SSE 10.4 mph - N/A   Clear
4:15 PM 41.0 °F 35.2 °F 17.6 °F 39% 30.08 in 10.0 mi SE 9.2 mph - N/A   Clear
4:35 PM 39.2 °F 33.6 °F 17.6 °F 42% 30.08 in 10.0 mi SSE 8.1 mph - N/A   Clear
4:54 PM 39.2 °F 34.2 °F 17.6 °F 42% 30.08 in 10.0 mi SE 6.9 mph - N/A   Clear
5:15 PM 39.2 °F 35.9 °F 17.6 °F 42% 30.08 in 10.0 mi SE 4.6 mph - N/A   Clear
5:35 PM 35.6 °F 30.7 °F 17.6 °F 48% 30.08 in 10.0 mi ESE 5.8 mph - N/A   Clear
5:55 PM 33.8 °F 27.0 °F 17.6 °F 52% 30.08 in 10.0 mi ESE 8.1 mph - N/A   Clear
6:15 PM 32.0 °F 25.6 °F 17.6 °F 55% 30.08 in 10.0 mi ESE 6.9 mph - N/A   Clear
6:34 PM 32.0 °F 25.6 °F 17.6 °F 55% 30.08 in 10.0 mi SE 6.9 mph - N/A   Clear
7:15 PM 30.2 °F 22.6 °F 17.6 °F 60% 30.08 in 10.0 mi SE 8.1 mph - N/A   Clear
7:34 PM 30.2 °F 22.6 °F 17.6 °F 60% 30.08 in 10.0 mi SE 8.1 mph - N/A   Clear
8:15 PM 30.2 °F 21.9 °F 17.6 °F 60% 30.08 in 10.0 mi SE 9.2 mph - N/A   Clear
8:35 PM 30.2 °F 22.6 °F 17.6 °F 60% 30.08 in 10.0 mi SE 8.1 mph - N/A   Clear
8:54 PM 28.4 °F 20.4 °F 17.6 °F 64% 30.08 in 10.0 mi SSE 8.1 mph - N/A   Clear
9:14 PM 28.4 °F 21.2 °F 17.6 °F 64% 30.09 in 10.0 mi SSE 6.9 mph - N/A   Clear
9:34 PM 28.4 °F 21.2 °F 17.6 °F 64% 30.09 in 10.0 mi South 6.9 mph - N/A   Clear
9:54 PM 26.6 °F 19.1 °F 15.8 °F 64% 30.09 in 10.0 mi SSE 6.9 mph - N/A   Clear
10:14 PM 26.6 °F 19.1 °F 15.8 °F 64% 30.09 in 10.0 mi SSE 6.9 mph - N/A   Clear
10:54 PM 24.8 °F 19.1 °F 15.8 °F 69% 30.09 in 10.0 mi SSE 4.6 mph - N/A   Clear
11:15 PM 23.0 °F 14.7 °F 15.8 °F 74% 30.09 in 10.0 mi SSE 6.9 mph - N/A   Clear
11:35 PM 23.0 °F 14.7 °F 17.6 °F 80% 30.08 in 10.0 mi SSE 6.9 mph - N/A   Clear
11:55 PM 24.8 °F 15.3 °F 17.6 °F 74% 30.07 in 10.0 mi SSE 9.2 mph - N/A   Clear